CES7866 CYXY-UHMA

Flight info

Callsign CES7866
Flight time N/A
Altitude 35000
Route YXY J515 ORT J502 OTZ B244 AKISA
Aircraft B738/L-SDE3FGHIRWY/LB1

Departure

Time N/A
Airport Whitehorse / Erik Nielsen International Airport (CYXY)

Arrival

Time 2026-04-26 09:52
Airport Ugolny Yuri Ryktheu Airport (UHMA)
Time Latitude Longitude Altitude Speed Heading
2026-04-26 07:29 63.88178 -144.78278 35001 ft 466 kts 304°
2026-04-26 07:30 63.89997 -144.84242 35001 ft 466 kts 304°
2026-04-26 07:30 63.93648 -144.96265 35001 ft 466 kts 304°
2026-04-26 07:31 63.97315 -145.08401 35001 ft 466 kts 304°
2026-04-26 07:31 64.00960 -145.20534 35000 ft 466 kts 304°
2026-04-26 07:32 64.04580 -145.32645 35001 ft 466 kts 304°
2026-04-26 07:32 64.08221 -145.44894 35001 ft 466 kts 304°
2026-04-26 07:33 64.11823 -145.57077 35000 ft 466 kts 304°
2026-04-26 07:33 64.15325 -145.68986 35001 ft 466 kts 303°
2026-04-26 07:34 64.18987 -145.81506 35001 ft 466 kts 303°
2026-04-26 07:34 64.22578 -145.93851 35001 ft 466 kts 303°
2026-04-26 07:35 64.26146 -146.06183 35001 ft 466 kts 303°
2026-04-26 07:35 64.29722 -146.18611 35001 ft 466 kts 303°
2026-04-26 07:36 64.33272 -146.31018 35001 ft 466 kts 303°
2026-04-26 07:36 64.36792 -146.43388 35001 ft 466 kts 303°
2026-04-26 07:37 64.40340 -146.55930 35001 ft 466 kts 303°
2026-04-26 07:37 64.43845 -146.68388 35001 ft 466 kts 303°
2026-04-26 07:38 64.47343 -146.80893 35001 ft 466 kts 303°
2026-04-26 07:38 64.50854 -146.93514 35001 ft 466 kts 303°
2026-04-26 07:39 64.54334 -147.06094 35001 ft 466 kts 303°
2026-04-26 07:39 64.57807 -147.18723 35001 ft 466 kts 303°
2026-04-26 07:40 64.61256 -147.31334 35001 ft 466 kts 303°
2026-04-26 07:40 64.64709 -147.44026 35001 ft 466 kts 303°
2026-04-26 07:41 64.68141 -147.56720 35001 ft 466 kts 303°
2026-04-26 07:41 64.71575 -147.69490 35001 ft 466 kts 302°
2026-04-26 07:42 64.75008 -147.82329 35001 ft 466 kts 302°
2026-04-26 07:42 64.78417 -147.95155 35001 ft 466 kts 302°
2026-04-26 07:43 64.81549 -148.08357 35001 ft 466 kts 295°
2026-04-26 07:43 64.84309 -148.22047 35001 ft 466 kts 296°
2026-04-26 07:44 64.87083 -148.35661 35001 ft 466 kts 296°
2026-04-26 07:44 64.89857 -148.49387 35001 ft 466 kts 296°
2026-04-26 07:45 64.92602 -148.63068 35000 ft 466 kts 296°
2026-04-26 07:45 64.95354 -148.76860 35001 ft 466 kts 295°
2026-04-26 07:46 64.98083 -148.90639 35001 ft 466 kts 295°
2026-04-26 07:46 65.00804 -149.04457 35001 ft 466 kts 295°
2026-04-26 07:47 65.03503 -149.18263 35001 ft 466 kts 295°
2026-04-26 07:47 65.06200 -149.32147 35001 ft 466 kts 295°
2026-04-26 07:48 65.08878 -149.46033 35001 ft 466 kts 295°
2026-04-26 07:48 65.11555 -149.60002 35001 ft 466 kts 295°
2026-04-26 07:49 65.14205 -149.73930 35001 ft 466 kts 294°
2026-04-26 07:49 65.16866 -149.88011 35001 ft 466 kts 294°
2026-04-26 07:50 65.20798 -150.08997 35000 ft 466 kts 294°
2026-04-26 07:50 65.23406 -150.23039 35000 ft 466 kts 294°
2026-04-26 07:51 65.26002 -150.37109 35000 ft 466 kts 294°
2026-04-26 07:51 65.28578 -150.51178 35000 ft 466 kts 294°
2026-04-26 07:52 65.31150 -150.65320 35000 ft 466 kts 293°
2026-04-26 07:52 65.33713 -150.79511 35000 ft 466 kts 293°
2026-04-26 07:53 65.36250 -150.93665 35001 ft 466 kts 293°
2026-04-26 07:53 65.38796 -151.07964 35001 ft 466 kts 293°
2026-04-26 07:54 65.41297 -151.22115 35000 ft 466 kts 293°
2026-04-26 07:54 65.43800 -151.36375 35000 ft 466 kts 293°
2026-04-26 07:55 65.46293 -151.50685 35001 ft 466 kts 293°
2026-04-26 07:55 65.48764 -151.64978 35001 ft 466 kts 293°
2026-04-26 07:56 65.51244 -151.79423 35001 ft 466 kts 292°
2026-04-26 07:56 65.53696 -151.93811 35001 ft 466 kts 292°
2026-04-26 07:57 65.56126 -152.08179 35001 ft 466 kts 292°
2026-04-26 07:57 65.58547 -152.22604 35001 ft 466 kts 292°
2026-04-26 07:58 65.60961 -152.37089 35001 ft 466 kts 292°
2026-04-26 07:58 65.63342 -152.51488 35001 ft 466 kts 292°
2026-04-26 07:59 65.65728 -152.66023 35000 ft 466 kts 291°
2026-04-26 07:59 65.68106 -152.80621 35001 ft 466 kts 291°
2026-04-26 08:00 65.70448 -152.95116 35001 ft 466 kts 291°
2026-04-26 08:00 65.72800 -153.09775 35001 ft 466 kts 291°
2026-04-26 08:01 65.75116 -153.24332 35001 ft 466 kts 291°
2026-04-26 08:01 65.77420 -153.38919 35001 ft 466 kts 291°
2026-04-26 08:02 65.79726 -153.53638 35000 ft 466 kts 291°
2026-04-26 08:02 65.82009 -153.68323 35001 ft 466 kts 290°
2026-04-26 08:03 65.84274 -153.83005 35001 ft 466 kts 290°
2026-04-26 08:03 65.86534 -153.97777 35001 ft 466 kts 290°
2026-04-26 08:04 65.88778 -154.12563 35001 ft 466 kts 290°
2026-04-26 08:04 65.91007 -154.27362 35001 ft 466 kts 290°
2026-04-26 08:05 65.93217 -154.42160 35001 ft 466 kts 290°
2026-04-26 08:05 65.95410 -154.56970 35001 ft 466 kts 290°
2026-04-26 08:06 65.97609 -154.71935 35001 ft 466 kts 289°
2026-04-26 08:06 65.99770 -154.86765 35001 ft 466 kts 289°
2026-04-26 08:07 66.01929 -155.01714 35001 ft 466 kts 289°
2026-04-26 08:07 66.04069 -155.16646 35001 ft 466 kts 289°
2026-04-26 08:08 66.06198 -155.31630 35001 ft 466 kts 289°
2026-04-26 08:08 66.08312 -155.46628 35001 ft 466 kts 289°
2026-04-26 08:09 66.10412 -155.61667 35001 ft 466 kts 289°
2026-04-26 08:09 66.12492 -155.76689 35001 ft 466 kts 288°
2026-04-26 08:10 66.14560 -155.91744 35001 ft 466 kts 288°
2026-04-26 08:10 66.16621 -156.06885 35000 ft 466 kts 288°
2026-04-26 08:11 66.18652 -156.21944 35001 ft 466 kts 288°
2026-04-26 08:11 66.20681 -156.37118 35001 ft 466 kts 288°
2026-04-26 08:12 66.22688 -156.52264 35001 ft 466 kts 288°
2026-04-26 08:12 66.24686 -156.67474 35001 ft 466 kts 288°
2026-04-26 08:13 66.26664 -156.82665 35000 ft 466 kts 288°
2026-04-26 08:13 66.28631 -156.97913 35000 ft 466 kts 288°
2026-04-26 08:14 66.30595 -157.13283 35001 ft 466 kts 288°
2026-04-26 08:14 66.32520 -157.28482 35001 ft 466 kts 288°
2026-04-26 08:15 66.34449 -157.43855 35001 ft 466 kts 288°
2026-04-26 08:15 66.36356 -157.59198 35001 ft 466 kts 288°
2026-04-26 08:16 66.38249 -157.74573 35001 ft 466 kts 287°
2026-04-26 08:16 66.40129 -157.89986 35001 ft 466 kts 287°
2026-04-26 08:17 66.41981 -158.05322 35001 ft 466 kts 287°
2026-04-26 08:17 66.43834 -158.20802 35001 ft 466 kts 287°
2026-04-26 08:18 66.45659 -158.36208 35001 ft 466 kts 287°
2026-04-26 08:18 66.47478 -158.51717 35001 ft 466 kts 287°
2026-04-26 08:19 66.49272 -158.67154 35001 ft 466 kts 286°
2026-04-26 08:19 66.51061 -158.82709 35001 ft 466 kts 286°
2026-04-26 08:20 66.52837 -158.98306 35001 ft 466 kts 286°
2026-04-26 08:20 66.54591 -159.13869 35001 ft 466 kts 286°
2026-04-26 08:21 66.56327 -159.29430 35001 ft 466 kts 286°
2026-04-26 08:21 66.58052 -159.45050 35001 ft 466 kts 286°
2026-04-26 08:22 66.59754 -159.60623 35001 ft 466 kts 286°
2026-04-26 08:22 66.61449 -159.76298 35001 ft 466 kts 285°
2026-04-26 08:23 66.63126 -159.91962 35001 ft 466 kts 285°
2026-04-26 08:23 66.64789 -160.07674 35001 ft 466 kts 285°
2026-04-26 08:24 66.66425 -160.23299 35001 ft 466 kts 285°
2026-04-26 08:24 66.68052 -160.38995 35001 ft 466 kts 285°
2026-04-26 08:25 66.69668 -160.54765 35001 ft 466 kts 285°
2026-04-26 08:25 66.71270 -160.70572 35001 ft 466 kts 284°
2026-04-26 08:26 66.72845 -160.86285 35001 ft 466 kts 284°
2026-04-26 08:26 66.74409 -161.02068 35001 ft 466 kts 284°
2026-04-26 08:27 66.75960 -161.17900 35001 ft 466 kts 284°
2026-04-26 08:27 66.77497 -161.33771 35001 ft 466 kts 284°
2026-04-26 08:28 66.79018 -161.49666 35001 ft 466 kts 284°
2026-04-26 08:28 66.80521 -161.65547 35001 ft 466 kts 283°
2026-04-26 08:29 66.82012 -161.81494 35001 ft 466 kts 283°
2026-04-26 08:29 66.83480 -161.97383 35001 ft 466 kts 283°
2026-04-26 08:30 66.84944 -162.13422 35001 ft 466 kts 283°
2026-04-26 08:30 66.86379 -162.29343 35001 ft 466 kts 283°
2026-04-26 08:31 66.87738 -162.45389 35000 ft 466 kts 280°
2026-04-26 08:31 66.88223 -162.61783 35001 ft 466 kts 269°
2026-04-26 08:32 66.87844 -162.78165 35001 ft 466 kts 267°
2026-04-26 08:32 66.87570 -162.94547 35001 ft 466 kts 267°
2026-04-26 08:33 66.87231 -163.10860 35001 ft 466 kts 267°
2026-04-26 08:33 66.86851 -163.27298 35001 ft 466 kts 266°
2026-04-26 08:34 66.86444 -163.43646 35001 ft 466 kts 266°
2026-04-26 08:34 66.86014 -163.59996 35001 ft 466 kts 266°
2026-04-26 08:35 66.85562 -163.76364 35001 ft 466 kts 265°
2026-04-26 08:35 66.85093 -163.92690 35001 ft 466 kts 265°
2026-04-26 08:36 66.84605 -164.09006 35001 ft 466 kts 265°
2026-04-26 08:36 66.84097 -164.25394 35001 ft 466 kts 265°
2026-04-26 08:37 66.83575 -164.41693 35001 ft 466 kts 265°
2026-04-26 08:37 66.83036 -164.57982 35001 ft 466 kts 265°
2026-04-26 08:38 66.82478 -164.74332 35001 ft 466 kts 265°
2026-04-26 08:38 66.81905 -164.90598 35001 ft 466 kts 265°
2026-04-26 08:39 66.81313 -165.06935 35001 ft 466 kts 265°
2026-04-26 08:39 66.80708 -165.23169 35001 ft 466 kts 265°
2026-04-26 08:40 66.80083 -165.39462 35001 ft 466 kts 265°
2026-04-26 08:40 66.79442 -165.55742 35001 ft 466 kts 265°
2026-04-26 08:41 66.78788 -165.71912 35001 ft 466 kts 264°
2026-04-26 08:41 66.78111 -165.88213 35001 ft 466 kts 264°
2026-04-26 08:42 66.77421 -166.04442 35001 ft 466 kts 264°
2026-04-26 08:42 66.76716 -166.20604 35001 ft 466 kts 264°
2026-04-26 08:43 66.75990 -166.36873 35001 ft 466 kts 264°
2026-04-26 08:43 66.75250 -166.53053 35001 ft 466 kts 264°
2026-04-26 08:44 66.74495 -166.69205 35001 ft 466 kts 263°
2026-04-26 08:44 66.73721 -166.85396 35001 ft 466 kts 263°
2026-04-26 08:45 66.72929 -167.01610 35001 ft 466 kts 263°
2026-04-26 08:45 66.72124 -167.17723 35001 ft 466 kts 263°
2026-04-26 08:46 66.71301 -167.33872 35001 ft 466 kts 263°
2026-04-26 08:46 66.70459 -167.50053 35001 ft 466 kts 263°
2026-04-26 08:47 66.69604 -167.66161 35001 ft 466 kts 262°
2026-04-26 08:47 66.68730 -167.82285 35001 ft 466 kts 262°
2026-04-26 08:48 66.67844 -167.98338 35001 ft 466 kts 262°
2026-04-26 08:48 66.66933 -168.14522 35001 ft 466 kts 262°
2026-04-26 08:49 66.66011 -168.30591 35001 ft 466 kts 262°
2026-04-26 08:49 66.65075 -168.46609 35001 ft 466 kts 262°
2026-04-26 08:50 66.64120 -168.62668 35001 ft 466 kts 262°
2026-04-26 08:50 66.63149 -168.78691 35001 ft 466 kts 261°
2026-04-26 08:51 66.61616 -169.02740 35001 ft 466 kts 259°
2026-04-26 08:52 66.60253 -169.18613 35001 ft 466 kts 258°
2026-04-26 08:52 66.58881 -169.34460 35001 ft 466 kts 258°
2026-04-26 08:53 66.57503 -169.50288 35001 ft 466 kts 258°
2026-04-26 08:53 66.56116 -169.66078 35001 ft 466 kts 257°
2026-04-26 08:54 66.54714 -169.81854 35001 ft 466 kts 257°
2026-04-26 08:54 66.53296 -169.97639 35001 ft 466 kts 257°
2026-04-26 08:55 66.51872 -170.13318 35001 ft 466 kts 257°
2026-04-26 08:55 66.50418 -170.29117 35001 ft 466 kts 257°
2026-04-26 08:56 66.49070 -170.44914 35001 ft 466 kts 259°
2026-04-26 08:56 66.47809 -170.60722 35001 ft 466 kts 259°
2026-04-26 08:57 66.46513 -170.76498 35001 ft 466 kts 258°
2026-04-26 08:57 66.45201 -170.92235 35001 ft 466 kts 258°
2026-04-26 08:58 66.43868 -171.07996 35001 ft 466 kts 258°
2026-04-26 08:58 66.42514 -171.23790 35001 ft 466 kts 258°
2026-04-26 08:59 66.41151 -171.39473 35001 ft 466 kts 258°
2026-04-26 08:59 66.39771 -171.55174 35001 ft 466 kts 258°
2026-04-26 09:00 66.38367 -171.70920 35001 ft 466 kts 257°
2026-04-26 09:00 66.36955 -171.86572 35000 ft 466 kts 257°
2026-04-26 09:01 66.35523 -172.02260 35001 ft 466 kts 257°
2026-04-26 09:01 66.34082 -172.17839 35001 ft 466 kts 257°
2026-04-26 09:02 66.32620 -172.33466 35000 ft 466 kts 257°
2026-04-26 09:02 66.31137 -172.49130 35000 ft 466 kts 257°
2026-04-26 09:03 66.29663 -172.64722 35000 ft 466 kts 258°
2026-04-26 09:03 66.28243 -172.80325 35001 ft 466 kts 257°
2026-04-26 09:04 66.26797 -172.95946 35001 ft 466 kts 257°
2026-04-26 09:04 66.25331 -173.11577 35001 ft 466 kts 257°
2026-04-26 09:05 66.23851 -173.27173 35001 ft 466 kts 257°
2026-04-26 09:05 66.22367 -173.42619 35001 ft 466 kts 257°
2026-04-26 09:06 66.20854 -173.58179 35001 ft 466 kts 257°
2026-04-26 09:06 66.19328 -173.73695 35001 ft 466 kts 256°
2026-04-26 09:07 66.17786 -173.89200 35001 ft 466 kts 256°
2026-04-26 09:07 66.16235 -174.04629 35001 ft 466 kts 256°
2026-04-26 09:08 66.14665 -174.20055 35001 ft 466 kts 256°
2026-04-26 09:08 66.13075 -174.35527 35001 ft 466 kts 256°
2026-04-26 09:09 66.11478 -174.50877 35001 ft 466 kts 256°
2026-04-26 09:09 66.09855 -174.66321 35001 ft 466 kts 255°
2026-04-26 09:10 66.08225 -174.81667 35001 ft 466 kts 255°
2026-04-26 09:10 66.06571 -174.97063 35001 ft 466 kts 255°
2026-04-26 09:11 66.04916 -175.12318 35001 ft 466 kts 255°
2026-04-26 09:11 66.03235 -175.27653 35001 ft 466 kts 255°
2026-04-26 09:12 66.01534 -175.43001 35001 ft 466 kts 255°
2026-04-26 09:12 65.99828 -175.58246 35001 ft 466 kts 255°
2026-04-26 09:13 65.98105 -175.73485 35001 ft 466 kts 254°
2026-04-26 09:13 65.96369 -175.88680 35001 ft 466 kts 254°
2026-04-26 09:14 65.94601 -176.04004 35001 ft 466 kts 254°
2026-04-26 09:14 65.92836 -176.19156 35001 ft 466 kts 254°
2026-04-26 09:15 65.91058 -176.34261 34998 ft 466 kts 254°
2026-04-26 09:15 65.90155 -176.41887 34698 ft 471 kts 254°
2026-04-26 09:15 65.89240 -176.49587 34366 ft 469 kts 254°
2026-04-26 09:15 65.88335 -176.57161 34040 ft 466 kts 254°
2026-04-26 09:16 65.87434 -176.64648 33717 ft 464 kts 254°
2026-04-26 09:16 65.86523 -176.72183 33392 ft 463 kts 253°
2026-04-26 09:16 65.85608 -176.79717 33068 ft 465 kts 253°
2026-04-26 09:16 65.84693 -176.87227 32745 ft 468 kts 253°
2026-04-26 09:17 65.83756 -176.94881 32418 ft 470 kts 253°
2026-04-26 09:17 65.82822 -177.02464 32094 ft 471 kts 253°
2026-04-26 09:17 65.81875 -177.10123 31767 ft 472 kts 253°
2026-04-26 09:17 65.80928 -177.17735 31442 ft 472 kts 253°
2026-04-26 09:18 65.79975 -177.25362 31117 ft 472 kts 253°
2026-04-26 09:18 65.79013 -177.33022 30790 ft 472 kts 253°
2026-04-26 09:18 65.78059 -177.40585 30466 ft 472 kts 253°
2026-04-26 09:18 65.77097 -177.48173 30142 ft 472 kts 253°
2026-04-26 09:19 65.76123 -177.55829 29814 ft 470 kts 253°
2026-04-26 09:19 65.75159 -177.63358 29489 ft 469 kts 253°
2026-04-26 09:19 65.74191 -177.70882 29164 ft 468 kts 252°
2026-04-26 09:19 65.73234 -177.78301 28839 ft 458 kts 252°
2026-04-26 09:20 65.72288 -177.85603 28514 ft 453 kts 252°
2026-04-26 09:20 65.71346 -177.92822 28190 ft 451 kts 252°
2026-04-26 09:20 65.70398 -178.00064 27864 ft 450 kts 252°
2026-04-26 09:20 65.69445 -178.07315 27536 ft 449 kts 252°
2026-04-26 09:21 65.68507 -178.14421 27213 ft 446 kts 252°
2026-04-26 09:21 65.67557 -178.21588 26885 ft 444 kts 252°
2026-04-26 09:21 65.66618 -178.28639 26561 ft 441 kts 252°
2026-04-26 09:21 65.65685 -178.35622 26238 ft 439 kts 252°
2026-04-26 09:22 65.64740 -178.42660 25910 ft 437 kts 252°
2026-04-26 09:22 65.63807 -178.49585 25586 ft 435 kts 252°
2026-04-26 09:22 65.62877 -178.56455 25262 ft 433 kts 252°
2026-04-26 09:22 65.61935 -178.63382 24934 ft 431 kts 252°
2026-04-26 09:23 65.61246 -178.68446 24694 ft 429 kts 251°
2026-04-26 09:23 65.60500 -178.73897 24433 ft 427 kts 251°
2026-04-26 09:23 65.59807 -178.78950 24191 ft 426 kts 251°
2026-04-26 09:23 65.58878 -178.85696 23865 ft 424 kts 251°
2026-04-26 09:24 65.57950 -178.92412 23540 ft 422 kts 251°
2026-04-26 09:24 65.57017 -178.99138 23211 ft 420 kts 251°
2026-04-26 09:24 65.56100 -179.05716 22889 ft 418 kts 251°
2026-04-26 09:24 65.55175 -179.12334 22562 ft 416 kts 251°
2026-04-26 09:25 65.54257 -179.18860 22238 ft 413 kts 251°
2026-04-26 09:25 65.53247 -179.25308 21912 ft 411 kts 248°
2026-04-26 09:25 65.52005 -179.31459 21586 ft 409 kts 241°
2026-04-26 09:25 65.50573 -179.37376 21260 ft 407 kts 239°
2026-04-26 09:26 65.49146 -179.43156 20937 ft 406 kts 240°
2026-04-26 09:26 65.47714 -179.49025 20608 ft 404 kts 240°
2026-04-26 09:26 65.46307 -179.54738 20286 ft 402 kts 239°
2026-04-26 09:26 65.45068 -179.59727 20002 ft 400 kts 238°
2026-04-26 09:29 65.44855 -179.60580 19954 ft 399 kts 238°
2026-04-26 09:29 65.43439 -179.66244 19629 ft 398 kts 238°
2026-04-26 09:29 65.42024 -179.71872 19305 ft 396 kts 238°
2026-04-26 09:29 65.40593 -179.77536 18977 ft 394 kts 238°
2026-04-26 09:30 65.39175 -179.83119 18651 ft 392 kts 238°
2026-04-26 09:30 65.37769 -179.88631 18327 ft 390 kts 238°
2026-04-26 09:30 65.36357 -179.94141 18001 ft 388 kts 238°
2026-04-26 09:30 65.34960 -179.99576 17678 ft 386 kts 238°
2026-04-26 09:31 65.33595 179.95169 17363 ft 384 kts 238°
2026-04-26 09:31 65.32172 179.89793 17037 ft 383 kts 238°
2026-04-26 09:31 65.30760 179.84439 16711 ft 381 kts 238°
2026-04-26 09:31 65.29366 179.79135 16383 ft 373 kts 238°
2026-04-26 09:32 65.28008 179.73961 16057 ft 366 kts 238°
2026-04-26 09:32 65.26656 179.68817 15729 ft 362 kts 238°
2026-04-26 09:32 65.25339 179.63821 15408 ft 361 kts 238°
2026-04-26 09:32 65.24019 179.58818 15081 ft 353 kts 238°
2026-04-26 09:33 65.22720 179.53899 14750 ft 341 kts 238°
2026-04-26 09:33 65.21478 179.49208 14424 ft 332 kts 238°
2026-04-26 09:33 65.20270 179.44663 14099 ft 323 kts 238°
2026-04-26 09:33 65.19096 179.40251 13776 ft 315 kts 238°
2026-04-26 09:34 65.18056 179.35693 13444 ft 307 kts 250°
2026-04-26 09:34 65.17612 179.30844 13119 ft 301 kts 268°
2026-04-26 09:34 65.17761 179.25969 12799 ft 295 kts 278°
2026-04-26 09:34 65.18044 179.21202 12477 ft 294 kts 277°
2026-04-26 09:35 65.18301 179.16380 12150 ft 292 kts 277°
2026-04-26 09:35 65.18552 179.11604 11825 ft 291 kts 277°
2026-04-26 09:35 65.18801 179.06863 11500 ft 290 kts 277°
2026-04-26 09:35 65.19050 179.02119 11174 ft 288 kts 277°
2026-04-26 09:36 65.19293 178.97446 10850 ft 287 kts 277°
2026-04-26 09:36 65.19539 178.92712 10522 ft 285 kts 277°
2026-04-26 09:36 65.19779 178.88045 10196 ft 284 kts 277°
2026-04-26 09:36 65.20013 178.83458 9876 ft 282 kts 277°
2026-04-26 09:37 65.20249 178.78828 9568 ft 280 kts 277°
2026-04-26 09:37 65.20479 178.74281 9243 ft 279 kts 277°
2026-04-26 09:37 65.20712 178.69663 8912 ft 278 kts 277°
2026-04-26 09:37 65.20939 178.65108 8584 ft 277 kts 277°
2026-04-26 09:38 65.21161 178.60617 8262 ft 276 kts 277°
2026-04-26 09:38 65.21384 178.56084 7931 ft 272 kts 277°
2026-04-26 09:38 65.21600 178.51685 7620 ft 267 kts 277°
2026-04-26 09:38 65.21803 178.47343 7347 ft 266 kts 274°
2026-04-26 09:39 65.21627 178.42989 7065 ft 265 kts 253°
2026-04-26 09:39 65.20782 178.39136 6794 ft 264 kts 235°
2026-04-26 09:39 65.19697 178.35614 6521 ft 263 kts 234°
2026-04-26 09:39 65.18636 178.32082 6245 ft 262 kts 234°
2026-04-26 09:40 65.17582 178.28569 5970 ft 261 kts 234°
2026-04-26 09:40 65.16544 178.25120 5697 ft 258 kts 234°
2026-04-26 09:40 65.15508 178.21687 5417 ft 252 kts 234°
2026-04-26 09:40 65.14511 178.18390 5191 ft 244 kts 234°
2026-04-26 09:41 65.13533 178.15161 5000 ft 233 kts 234°
2026-04-26 09:41 65.12605 178.12108 4822 ft 224 kts 234°
2026-04-26 09:41 65.11716 178.09187 4654 ft 216 kts 234°
2026-04-26 09:41 65.10855 178.06364 4488 ft 208 kts 234°
2026-04-26 09:42 65.10024 178.03638 4344 ft 200 kts 234°
2026-04-26 09:42 65.09228 178.01028 4225 ft 192 kts 234°
2026-04-26 09:42 65.08429 177.98531 4107 ft 187 kts 225°
2026-04-26 09:42 65.07353 177.96933 3987 ft 183 kts 204°
2026-04-26 09:43 65.06207 177.95738 3898 ft 177 kts 203°
2026-04-26 09:43 65.05084 177.94656 3792 ft 171 kts 202°
2026-04-26 09:43 65.04012 177.93568 3697 ft 165 kts 201°
2026-04-26 09:43 65.02945 177.92705 3603 ft 159 kts 198°
2026-04-26 09:44 65.01901 177.91956 3532 ft 157 kts 196°
2026-04-26 09:44 65.00835 177.91242 3447 ft 158 kts 195°
2026-04-26 09:44 64.99779 177.90556 3358 ft 158 kts 195°
2026-04-26 09:44 64.98726 177.89885 3277 ft 157 kts 195°
2026-04-26 09:45 64.97673 177.89218 3210 ft 157 kts 195°
2026-04-26 09:45 64.96623 177.88557 3182 ft 156 kts 195°
2026-04-26 09:45 64.95576 177.87901 3187 ft 157 kts 195°
2026-04-26 09:45 64.94526 177.87244 3188 ft 157 kts 195°
2026-04-26 09:46 64.93485 177.86592 3186 ft 150 kts 195°
2026-04-26 09:46 64.92519 177.85986 3180 ft 135 kts 195°
2026-04-26 09:46 64.91648 177.85442 3154 ft 127 kts 195°
2026-04-26 09:46 64.90794 177.84907 3205 ft 130 kts 195°
2026-04-26 09:47 64.89915 177.84358 3185 ft 131 kts 195°
2026-04-26 09:47 64.89043 177.83821 3044 ft 130 kts 195°
2026-04-26 09:47 64.88171 177.83276 2879 ft 128 kts 195°
2026-04-26 09:47 64.87312 177.82741 2717 ft 129 kts 195°
2026-04-26 09:48 64.86441 177.82199 2526 ft 128 kts 195°
2026-04-26 09:48 64.85585 177.81665 2353 ft 128 kts 195°
2026-04-26 09:48 64.84727 177.81131 2176 ft 128 kts 195°
2026-04-26 09:48 64.83874 177.80600 2000 ft 127 kts 195°
2026-04-26 09:49 64.83015 177.80064 1826 ft 127 kts 195°
2026-04-26 09:49 64.82178 177.79544 1656 ft 127 kts 195°
2026-04-26 09:49 64.81327 177.79016 1481 ft 126 kts 195°
2026-04-26 09:49 64.80477 177.78490 1309 ft 126 kts 195°
2026-04-26 09:50 64.79627 177.77960 1138 ft 126 kts 195°
2026-04-26 09:50 64.78789 177.77441 968 ft 125 kts 195°
2026-04-26 09:50 64.77950 177.76923 801 ft 125 kts 195°
2026-04-26 09:50 64.77114 177.76405 633 ft 125 kts 195°
2026-04-26 09:51 64.76277 177.75886 467 ft 124 kts 195°
2026-04-26 09:51 64.75446 177.75374 311 ft 124 kts 195°
2026-04-26 09:51 64.74619 177.74863 176 ft 117 kts 195°
2026-04-26 09:51 64.73989 177.74472 160 ft 65 kts 194°
2026-04-26 09:52 64.73717 177.74298 155 ft 23 kts 197°
2026-04-26 09:52 64.73455 177.74146 150 ft 16 kts 196°
2026-04-26 09:52 64.73351 177.74077 150 ft 15 kts 196°
2026-04-26 09:53 64.73242 177.74005 149 ft 16 kts 196°
2026-04-26 09:53 64.73128 177.73932 146 ft 16 kts 193°
2026-04-26 09:53 64.73029 177.73879 146 ft 12 kts 194°
2026-04-26 09:53 64.72946 177.73828 146 ft 13 kts 195°
2026-04-26 09:54 64.72852 177.73769 144 ft 14 kts 195°
2026-04-26 09:54 64.72756 177.73709 144 ft 13 kts 195°
2026-04-26 09:54 64.72665 177.73653 144 ft 14 kts 194°
2026-04-26 09:54 64.72563 177.73592 144 ft 16 kts 194°
2026-04-26 09:55 64.72447 177.73521 144 ft 18 kts 194°
2026-04-26 09:55 64.72319 177.73444 144 ft 19 kts 195°
2026-04-26 09:55 64.72183 177.73360 144 ft 19 kts 195°
2026-04-26 09:55 64.72077 177.73320 144 ft 12 kts 169°
2026-04-26 09:56 64.72004 177.73355 144 ft 10 kts 179°
2026-04-26 09:56 64.71928 177.73344 142 ft 11 kts 178°
2026-04-26 09:56 64.71846 177.73416 141 ft 13 kts 156°
2026-04-26 09:56 64.71761 177.73509 139 ft 13 kts 150°
2026-04-26 09:57 64.71690 177.73634 138 ft 12 kts 141°
2026-04-26 09:57 64.71612 177.73782 132 ft 17 kts 154°
2026-04-26 09:57 64.71505 177.73720 129 ft 11 kts 196°
2026-04-26 09:57 64.71430 177.73718 125 ft 9 kts 176°
2026-04-26 09:58 64.71396 177.73724 122 ft 0 kts 175°